Location: Banios
(43.0451°N, 0.2335°E)
Time: 12:17:48
(UTC+00:00)

A-11 Canister half - Pass Details

Date: 08 May 2021
Orbit: 1513 x 1686 km, 47.2° (Epoch: 14 June)

Event Time Altitude Azimuth Distance (km) Brightness Sun altitude
Rises 17:19:23 0° 255° (WSW) 4,653 12.8 18.2°
Reaches altitude 10° 17:22:25 10° 256° (WSW) 3,669 12.6 17.7°
Maximum altitude 17:31:40 79° 344° (NNW) 1,550 9.4 16.0°
Drops below altitude 10° 17:41:05 10° 71° (ENE) 3,732 10.6 14.3°
Sets 17:44:12 0° 73° (ENE) 4,736 11.0 13.7°
